| time (UTC) | temp F | wind direction | speed knots | gust knots | rain 1hr in | rain 24hr in | rain mn in | humidity % | barometer mb |
| 20260504191039 | 73 | 248 | 10.4 | 20.9 | 0.00 | 0.00 | 0.00 | 38 | 1003.4 |
| 20260504190019 | 72 | 225 | 7.8 | 14.8 | 0.00 | 0.00 | 0.00 | 39 | 1003.5 |
| 20260504185019 | 73 | 225 | 7.0 | 13.0 | 0.00 | 0.00 | 0.00 | 39 | 1003.5 |
| 20260504184018 | 73 | 248 | 6.1 | 13.9 | 0.00 | 0.00 | 0.00 | 39 | 1003.6 |
| 20260504183019 | 72 | 270 | 5.2 | 10.4 | 0.00 | 0.00 | 0.00 | 39 | 1003.7 |
| 20260504182019 | 73 | 248 | 9.6 | 28.7 | 0.00 | 0.00 | 0.00 | 39 | 1003.9 |
| 20260504181019 | 72 | 270 | 8.7 | 14.8 | 0.00 | 0.00 | 0.00 | 40 | 1004.0 |
| 20260504180039 | 71 | 270 | 7.8 | 17.4 | 0.00 | 0.00 | 0.00 | 40 | 1004.0 |
| 20260504175019 | 72 | 248 | 8.7 | 14.8 | 0.00 | 0.00 | 0.00 | 40 | 1004.0 |
| 20260504174019 | 71 | 248 | 7.8 | 16.5 | 0.00 | 0.00 | 0.00 | 40 | 1004.1 |
| 20260504173039 | 71 | 248 | 7.0 | 13.9 | 0.00 | 0.00 | 0.00 | 40 | 1004.1 |
| 20260504172018 | 71 | 225 | 6.1 | 14.8 | 0.00 | 0.00 | 0.00 | 40 | 1004.1 |
| 20260504171018 | 70 | 248 | 7.8 | 12.2 | 0.00 | 0.00 | 0.00 | 41 | 1004.3 |
| 20260504151038 | 64 | 248 | 6.1 | 15.6 | 0.00 | 0.00 | 0.00 | 44 | 1005.5 |
| 20260504141018 | 60 | 225 | 7.8 | 14.8 | 0.00 | 0.00 | 0.00 | 46 | 1005.8 |
| 20260504081018 | 53 | 225 | 5.2 | 9.6 | 0.00 | 0.00 | 0.00 | 50 | 1006.5 |
| 20260504050018 | 54 | 225 | 0.9 | 2.6 | 0.00 | 0.00 | 0.00 | 52 | 1007.1 |
| 20260504045018 | 54 | 248 | 1.7 | 5.2 | 0.00 | 0.00 | 0.00 | 53 | 1007.1 |
| 20260504044018 | 53 | 0.0 | 0.0 | 0.00 | 0.00 | 0.00 | 57 | 1007.1 | |
| 20260504043018 | 53 | 0.0 | 0.9 | 0.00 | 0.00 | 0.00 | 59 | 1007.2 | |
| 20260504042018 | 52 | 0.0 | 0.0 | 0.00 | 0.00 | 0.00 | 59 | 1007.2 | |
| 20260504041018 | 52 | 158 | 0.9 | 1.7 | 0.00 | 0.00 | 0.00 | 60 | 1007.3 |
| 20260504040018 | 52 | 158 | 0.9 | 2.6 | 0.00 | 0.00 | 0.00 | 61 | 1007.4 |
| 20260504035018 | 52 | 158 | 0.9 | 1.7 | 0.00 | 0.00 | 0.00 | 62 | 1007.4 |
| 20260504034018 | 52 | 158 | 0.9 | 1.7 | 0.00 | 0.00 | 0.00 | 63 | 1007.6 |
| 20260504033018 | 52 | 180 | 1.7 | 3.5 | 0.00 | 0.00 | 0.00 | 64 | 1007.5 |
| 20260504032018 | 52 | 180 | 0.9 | 2.6 | 0.00 | 0.00 | 0.00 | 64 | 1007.8 |
| 20260504031017 | 52 | 180 | 1.7 | 3.5 | 0.00 | 0.00 | 0.00 | 64 | 1007.7 |
| 20260504030018 | 52 | 180 | 1.7 | 4.3 | 0.00 | 0.00 | 0.00 | 64 | 1007.8 |
| 20260504025018 | 52 | 158 | 0.9 | 2.6 | 0.00 | 0.00 | 0.00 | 64 | 1007.8 |
| 20260504024038 | 52 | 225 | 0.9 | 2.6 | 0.00 | 0.00 | 0.00 | 63 | 1007.9 |
| 20260504023038 | 52 | 225 | 1.7 | 3.5 | 0.00 | 0.00 | 0.00 | 63 | 1008.2 |
| 20260504022017 | 52 | 248 | 3.5 | 7.8 | 0.00 | 0.00 | 0.00 | 63 | 1008.4 |
| 20260504021017 | 53 | 248 | 2.6 | 7.8 | 0.00 | 0.00 | 0.00 | 64 | 1008.5 |
| 20260504020038 | 53 | 270 | 3.5 | 8.7 | 0.00 | 0.00 | 0.00 | 64 | 1008.7 |
| 20260504015017 | 53 | 293 | 6.1 | 11.3 | 0.00 | 0.00 | 0.00 | 62 | 1009.0 |
| 20260504014017 | 55 | 315 | 7.8 | 17.4 | 0.00 | 0.00 | 0.00 | 56 | 1008.8 |
| 20260504013017 | 56 | 293 | 7.8 | 13.9 | 0.00 | 0.00 | 0.00 | 52 | 1008.5 |
| 20260504012017 | 56 | 293 | 7.8 | 15.6 | 0.00 | 0.00 | 0.00 | 49 | 1008.3 |
| 20260504011037 | 57 | 293 | 10.4 | 14.8 | 0.00 | 0.00 | 0.00 | 48 | 1008.1 |
| 20260504010017 | 57 | 293 | 10.4 | 19.1 | 0.00 | 0.00 | 0.00 | 46 | 1008.1 |
| 20260504005037 | 58 | 293 | 7.8 | 15.6 | 0.00 | 0.00 | 0.00 | 43 | 1007.9 |
| 20260504004017 | 57 | 293 | 3.5 | 7.8 | 0.00 | 0.00 | 0.00 | 42 | 1007.7 |
| 20260504003017 | 57 | 248 | 3.5 | 8.7 | 0.00 | 0.00 | 0.00 | 43 | 1007.6 |
| 20260504002017 | 56 | 225 | 1.7 | 4.3 | 0.00 | 0.00 | 0.00 | 44 | 1007.4 |
| 20260504001037 | 56 | 225 | 0.9 | 3.5 | 0.00 | 0.00 | 0.00 | 45 | 1007.2 |
| 20260504000017 | 56 | 203 | 3.5 | 5.2 | 0.00 | 0.00 | 0.00 | 45 | 1007.3 |
| 20260503235017 | 56 | 225 | 3.5 | 8.7 | 0.00 | 0.00 | 0.00 | 45 | 1007.2 |
| 20260503234017 | 56 | 315 | 3.5 | 9.6 | 0.00 | 0.00 | 0.00 | 46 | 1007.6 |
| 20260503233017 | 56 | 293 | 8.7 | 14.8 | 0.00 | 0.00 | 0.00 | 44 | 1007.8 |
| 20260503232017 | 56 | 270 | 7.0 | 16.5 | 0.00 | 0.00 | 0.00 | 44 | 1008.0 |
| 20260503231017 | 57 | 293 | 6.1 | 10.4 | 0.00 | 0.00 | 0.00 | 40 | 1007.9 |
| 20260503230019 | 57 | 293 | 6.1 | 13.0 | 0.00 | 0.00 | 0.00 | 41 | 1007.8 |
| 20260503225059 | 58 | 293 | 3.5 | 7.8 | 0.00 | 0.00 | 0.00 | 39 | 1007.7 |
| 20260503224039 | 57 | 270 | 2.6 | 5.2 | 0.00 | 0.00 | 0.00 | 41 | 1007.5 |
| 20260503223020 | 58 | 248 | 2.6 | 6.1 | 0.00 | 0.00 | 0.00 | 39 | 1007.5 |
| 20260503222019 | 58 | 270 | 2.6 | 5.2 | 0.00 | 0.00 | 0.00 | 40 | 1007.4 |
| 20260503221019 | 58 | 248 | 4.3 | 8.7 | 0.00 | 0.00 | 0.00 | 38 | 1007.5 |
| 20260503220019 | 57 | 315 | 2.6 | 7.8 | 0.00 | 0.00 | 0.00 | 39 | 1007.7 |
| 20260503215039 | 57 | 248 | 3.5 | 7.8 | 0.00 | 0.00 | 0.00 | 39 | 1007.8 |
| 20260503214019 | 57 | 270 | 3.5 | 7.8 | 0.00 | 0.00 | 0.00 | 39 | 1007.7 |
| 20260503213018 | 57 | 270 | 5.2 | 8.7 | 0.00 | 0.00 | 0.00 | 40 | 1007.8 |
| 20260503212018 | 57 | 270 | 5.2 | 9.6 | 0.00 | 0.00 | 0.00 | 39 | 1007.7 |
| 20260503211018 | 57 | 293 | 4.3 | 10.4 | 0.00 | 0.00 | 0.00 | 41 | 1007.7 |
| 20260503210018 | 57 | 248 | 3.5 | 7.8 | 0.00 | 0.00 | 0.00 | 41 | 1007.8 |
| 20260503205018 | 56 | 293 | 4.3 | 7.8 | 0.00 | 0.00 | 0.00 | 41 | 1007.9 |
| 20260503204018 | 56 | 293 | 5.2 | 9.6 | 0.00 | 0.00 | 0.00 | 42 | 1007.9 |
| 20260503203018 | 56 | 293 | 7.0 | 12.2 | 0.00 | 0.00 | 0.00 | 41 | 1008.0 |
| 20260503202038 | 57 | 293 | 6.1 | 13.9 | 0.00 | 0.00 | 0.00 | 40 | 1008.2 |
| 20260503201018 | 56 | 270 | 6.1 | 12.2 | 0.00 | 0.00 | 0.00 | 41 | 1008.4 |
| 20260503200018 | 56 | 270 | 6.1 | 12.2 | 0.00 | 0.00 | 0.00 | 41 | 1008.4 |
| 20260503195038 | 56 | 315 | 6.1 | 11.3 | 0.00 | 0.00 | 0.00 | 41 | 1008.4 |
| 20260503194018 | 56 | 248 | 7.0 | 13.0 | 0.00 | 0.00 | 0.00 | 41 | 1008.5 |
| 20260503193018 | 55 | 293 | 6.1 | 11.3 | 0.00 | 0.00 | 0.00 | 39 | 1008.5 |
| 20260503192038 | 56 | 293 | 5.2 | 10.4 | 0.00 | 0.00 | 0.00 | 39 | 1008.6 |